Regional Weather Roundup
Issued by NWS Nashville, TN

Home | Current Version | Previous Version | Text Only | Print | Product List | Glossary On
Versions: 1 2 3 4 5 6 7 8 9 10 11 12 13 14 15 16 17 18 19 20 21 22 23 24 25 26 27 28
000
ASUS44 KOHX 280210
RWROHX
MIDDLE TENNESSEE HOURLY WEATHER ROUNDUP
NATIONAL WEATHER SERVICE NASHVILLE TN
900 PM CDT MON MAR 27 2017

NOTE: "FAIR" INDICATES FEW OR NO CLOUDS BELOW 12,000 FEET WITH
NO SIGNIFICANT WEATHER AND/OR OBSTRUCTIONS TO VISIBILITY.

* THESE REPORTS ARE NOT UNDER NWS QUALITY CONTROL AND MAY NOT
  REPORT WEATHER SUCH AS PRECIPITATION AND FOG.


TNZ005>011-023>034-057-059-062>066-078-080-280300
...NORTHERN MIDDLE TENNESSEE...

CITY           SKY/WX    TMP DP  RH WIND       PRES   REMARKS
CLARKSVILLE    CLOUDY    57  55  93 NW5       29.84R
CROSSVILLE     CLOUDY    57  53  86 N9        29.96R
GALLATIN       MOCLDY    59  57  94 CALM      29.90S
NASHVILLE      CLOUDY    59  57  93 NE6       29.87R
PORTLAND       CLOUDY    57  57 100 S8        29.87R
SMYRNA         CLOUDY    60  58  92 SE6       29.88R
SPARTA         CLOUDY    59  57  94 E9        29.94S FOG
WEST NASHVILLE PTCLDY    57  57 100 CALM        N/A
$$
TNZ056-058-060-061-075>077-079-093>097-280300
...SOUTHERN MIDDLE TENNESSEE...

CITY           SKY/WX    TMP DP  RH WIND       PRES   REMARKS
COLUMBIA       PTCLDY   N/A N/A N/A S9        29.84R
FAYETTEVILLE   CLOUDY    61  59  94 N10       29.91R
MCMINNVILLE    CLOUDY    61  59  94 N12       29.95R
SHELBYVILLE      N/A     61  61 100 SE14      29.89F
TULLAHOMA      CLOUDY    57  55  94 N13       29.94R
WINCHESTER     PTCLDY    61  57  88 SE9       29.89S
$$


...KEY TO REMARKS...
VSB - VISIBILITY IN MILES
WCI - WIND CHILL INDEX
HX  - HEAT INDEX





USA.gov is the U.S. government's official web portal to all federal, state and local government web resources and services.